Home   Weather   San Angelo   Past weeks

Flag for USA Past Weather in San Angelo, Texas, USA — Yesterday and Last 2 Weeks

Now
45 °F

Low clouds.


Feels Like: 40 °F
Forecast: 37 / 58 °F
Wind: 9 mph from South

Location: Mathis Field

Current Time: Dec 7, 2016 at 10:38:13 am

Latest Report: Dec 7, 2016 at 9:51 am


Visibility: 10 mi

Pressure: 30.07 "Hg (28.08 "Hg at 561m altitude)

Humidity: 86%

Dew Point: 41 °F

Location of San AngeloLocation

Past Weather in San Angelo — Graph

°F

San Angelo Temperature Yesterday

Maximum temperature yesterday: 47 °F (at 5:51 am)
Minimum temperature yesterday: 34 °F (at 10:51 pm)
Average temperature yesterday: 43 °F

High & Low Weather Summary for the Past Weeks

 TemperatureHumidityPressure
High81 °F (Nov 22, 2:51 pm)97% (Nov 25, 11:51 pm)30.44 "Hg (Nov 25, 11:51 pm)
Low31 °F (Dec 1, 4:51 am)24% (Nov 28, 3:51 pm)29.53 "Hg (Nov 28, 4:51 pm)
Average52 °F73%30.00 "Hg
* Reported Nov 22 8:51 am — Dec 7 8:51 am, San Angelo, Weather by CustomWeather, © 2016

Note: Actual official high and low records may vary slightly from our data, if they occured in-between our weather recording intervals... More about our weather records

Advertising

San Angelo Weather History for the Previous 24 Hours

Scroll right to see more
 ConditionsComfort  
Time TempWeatherWind HumidityBarometerVisibility
8:51 am
Wed, Dec 7
43 °FLow clouds.6 mph89%30.05 "Hg10 mi
7:51 am41 °FLow clouds.6 mph93%30.05 "Hg10 mi
6:51 am41 °FLow clouds.7 mph93%30.03 "Hg10 mi
5:51 am41 °FLow clouds.3 mph93%30.01 "Hg10 mi
4:51 am40 °FLow clouds.5 mph97%30.01 "Hg10 mi
3:51 am41 °FLow clouds.5 mph93%30.01 "Hg10 mi
2:51 am41 °FLow clouds.3 mph93%30.02 "Hg10 mi
1:51 am39 °FOvercast.No wind93%30.03 "Hg9 mi
12:51 am37 °FOvercast.No wind93%30.05 "Hg8 mi
11:51 pm
Tue, Dec 6
37 °FOvercast.No wind93%30.07 "Hg9 mi
10:51 pm34 °FPassing clouds.3 mph92%30.09 "Hg9 mi
9:51 pm35 °FClear.3 mph92%30.06 "Hg10 mi
8:51 pm38 °FClear.6 mph90%30.04 "Hg10 mi
7:51 pm41 °FPassing clouds.5 mph86%30.05 "Hg10 mi
6:51 pm44 °FOvercast.7 mph76%30.06 "Hg10 mi
5:51 pm45 °FOvercast.5 mph74%30.04 "Hg10 mi
4:51 pm46 °FOvercast.7 mph71%30.05 "Hg10 mi
3:51 pm47 °FOvercast.10 mph69%30.06 "Hg10 mi
2:51 pm46 °FOvercast.7 mph73%30.06 "Hg10 mi
1:51 pm46 °FOvercast.7 mph73%30.05 "Hg10 mi
12:51 pm46 °FOvercast.9 mph73%30.07 "Hg10 mi
11:51 am45 °FOvercast.13 mph76%30.08 "Hg10 mi
10:51 am45 °FOvercast.16 mph76%30.08 "Hg10 mi
Weather by CustomWeather, © 2016

See weather overviewHow to use our weather pages